Simultaneous Nadir Overpasses (SNOs) Predictions

Prediction of SNOs between AQUA and METOP-B Satellite Orbit:

Table of predicted SNOs for the next 14.0 days since TLE Epoch: 9/12/2025
Index Date (AQUA) Time (AQUA) Lat,Lon (AQUA) SZA (AQUA ) Date (METOP-B) Time (METOP-B) Lat,Lon (METOP-B) SZA (METOP-B ) Distance(km) Time Diff (sec)
1 09/14/2025 20:54:12 -77.92, 46.50 105.21 09/14/2025 20:54:05 -77.90, 46.44 105.23 2.79 7
2 09/14/2025 21:43:31 77.95,-145.96 74.84 09/14/2025 21:44:44 77.93,-146.06 74.82 2.96 73
3 09/17/2025 08:52:42 77.93, 46.91 75.77 09/17/2025 08:52:24 77.91, 46.91 75.76 1.65 18
4 09/17/2025 09:42:00 -77.97,-145.60 104.18 09/17/2025 09:43:05 -77.96,-145.56 104.19 1.73 65
5 09/19/2025 20:51:10 -77.93, 47.38 103.27 09/19/2025 20:50:45 -77.94, 47.41 103.26 1.31 25
6 09/19/2025 21:40:29 77.96,-145.12 76.79 09/19/2025 21:41:24 77.96,-145.13 76.79 0.30 55
7 09/22/2025 08:49:38 77.95, 47.73 77.73 09/22/2025 08:49:03 77.94, 47.81 77.72 2.23 35
8 09/22/2025 09:38:56 -77.98,-144.75 102.23 09/22/2025 09:39:44 -77.99,-144.63 102.22 2.78 48
9 09/24/2025 20:48:05 -77.94, 48.20 101.30 09/24/2025 20:47:24 -77.96, 48.30 101.29 2.86 41



Historial Predications of SNOs between AQUA and METOP-B
